Regional Weather Roundup
Issued by NWS Charleston, WV

Home | Current Version | Previous Version | Text Only | Print | Product List | Glossary On
Versions: 1 2 3 4 5 6 7 8 9 10 11 12 13 14 15 16 17 18 19 20 21 22 23 24 25 26 27 28 29 30 31 32 33 34 35 36 37 38 39 40 41 42 43 44 45 46 47 48 49 50
000
ASUS41 KRLX 050610
RWRRLX
West Virginia Regional Weather Roundup
National Weather Service Charleston WV
200 AM EDT SUN JUL 05 2015

Note: "fair" indicates few or no clouds below 12,000 feet with no
significant weather and/or obstructions to visibility.

WVZ003-050700-
Northern Panhandle of West Virginia

CITY           SKY/WX    TMP DP  RH WIND       PRES   REMARKS
WHEELING       PTCLDY    63  56  78 CALM      30.09S
$$

WVZ009-050700-
Northwest West Virginia

CITY           SKY/WX    TMP DP  RH WIND       PRES   REMARKS
PARKERSBURG    MOCLDY    61  59  93 CALM      30.10S FOG
$$

WVZ006-050700-
Western West Virginia

CITY           SKY/WX    TMP DP  RH WIND       PRES   REMARKS
HUNTINGTON     FOG       65  65 100 CALM      30.06S VSB 1
$$

WVZ015-050700-
West Central West Virginia

CITY           SKY/WX    TMP DP  RH WIND       PRES   REMARKS
CHARLESTON     FOG       67  65  93 CALM      30.07S VSB 1/2
$$

WVZ022-031-050700-
North Central West Virginia

CITY           SKY/WX    TMP DP  RH WIND       PRES   REMARKS
CLARKSBURG     FOG       61  60  97 CALM      30.08S VSB 1/2
MORGANTOWN     PTCLDY    64  58  80 CALM      30.09S HAZE
$$

WVZ025-035-042-045-050700-
Southern West Virginia

CITY           SKY/WX    TMP DP  RH WIND       PRES   REMARKS
BECKLEY        MOCLDY    62  60  93 CALM      30.15R FOG
LOGAN            N/A     68  66  94 CALM      30.06F FOG
BLUEFIELD      CLOUDY    68  62  81 CALM      30.16S
LEWISBURG      FOG       62  60  93 CALM      30.14R VSB 3/4
$$

WVZ047-050700-
Northern Mountains of West Virginia

CITY           SKY/WX    TMP DP  RH WIND       PRES   REMARKS
ELKINS         FOG       60  58  92 CALM      30.13S VSB 1/4
$$

WVZ052-050700-
Eastern Panhandle of West Virginia

CITY           SKY/WX    TMP DP  RH WIND       PRES   REMARKS
MARTINSBURG    MOCLDY    65  63  93 CALM      30.07S FOG
PETERSBURG       N/A     63  60  91 CALM      30.09S FOG
$$


USA.gov is the U.S. government's official web portal to all federal, state and local government web resources and services.